Theta_e
292 291 291 293 293 292 291 292 293 291 292 293 292 293 296 297 290 288 295 298 298 300 300 302 303 304 303 303 303 303 303 302 302 301 300 299 300 300 301 302 303 303 302 303 303 303 303 303 303 303 303 304 304 304 304 303 303 303 304 303 302 301 301 300 300 301 301 301 299 298 298 298 298 298 298 298 298 298 298 298 298 298 299 299 298 299 299
293 293 294 294 294 292 291 293 292 293 293 293 294 295 295 297 294 297 298 299 300 302 303 304 304 306 305 304 304 303 301 300 300 300 299 299 299 300 301 302 302 303 302 302 303 303 302 302 302 302 302 302 303 302 302 301 301 302 303 302 301 300 300 300 300 300 299 299 297 298 298 297 298 298 298 298 298 297 297 297 298 298 298 298 298 298 298
292 293 292 294 294 293 294 292 289 289 291 293 296 296 291 293 294 293 299 298 299 301 305 305 307 306 305 304 302 301 301 301 300 300 300 300 299 300 301 302 302 302 302 302 302 302 302 302 302 302 303 303 303 302 301 300 300 301 302 301 300 300 299 299 299 299 298 297 298 297 298 298 298 297 297 297 297 297 297 297 297 298 298 297 298 298 298
289 293 293 292 292 292 293 293 292 292 290 290 292 292 295 294 295 295 297 295 296 301 305 306 305 304 303 302 301 301 301 302 301 301 300 299 299 300 301 301 301 301 301 302 302 302 302 303 303 302 302 302 301 300 300 299 300 301 301 300 299 298 298 298 299 298 297 297 297 297 297 296 297 297 297 297 296 296 296 297 297 297 297 297 297 298 298
286 291 291 292 293 292 289 290 295 294 294 292 293 294 294 297 300 294 291 296 303 303 305 302 303 303 303 303 302 301 302 302 301 300 300 299 300 300 301 301 301 301 301 302 302 302 302 302 302 302 302 301 299 299 299 299 300 300 299 298 298 297 298 298 298 298 297 297 297 297 296 297 297 297 296 296 296 296 295 296 297 296 296 297 297 297 298
287 291 292 292 289 282 285 293 291 295 295 293 294 296 297 298 301 298 301 302 303 304 303 302 301 302 303 304 304 305 302 301 301 301 300 300 300 301 301 301 301 302 302 302 302 302 302 303 303 302 302 300 300 300 300 300 299 298 297 297 297 297 297 297 297 297 297 297 296 296 297 297 296 296 296 296 296 296 296 296 296 296 296 296 297 297 297
288 291 290 287 281 284 294 294 294 293 294 294 295 294 292 296 295 295 298 300 302 304 304 304 304 305 306 306 304 304 303 303 302 301 300 300 300 300 301 301 301 301 302 302 302 301 302 302 302 301 300 300 300 299 299 299 298 297 297 296 296 296 296 297 297 297 297 296 296 296 296 297 296 296 296 296 296 296 296 295 295 295 295 296 296 297 297
290 288 288 280 283 292 294 294 293 295 294 294 295 294 296 296 297 299 300 301 303 304 304 305 306 305 305 305 305 304 304 305 304 302 300 300 300 300 301 302 302 301 301 301 301 301 302 301 301 300 300 300 299 298 299 298 298 297 297 296 296 296 296 296 297 297 297 296 296 296 296 296 296 295 296 296 295 296 296 296 296 296 296 296 296 296 297
287 288 288 286 291 292 293 293 292 292 296 294 294 291 296 299 297 299 300 301 303 304 304 305 304 304 303 300 301 305 304 304 305 303 302 301 301 302 303 303 302 302 302 301 302 301 301 301 300 300 300 300 299 298 298 298 297 297 297 296 296 297 296 297 297 297 297 296 296 296 296 296 295 295 295 295 295 296 295 295 295 295 295 295 296 296 296
288 288 286 287 287 284 290 300 299 300 299 301 299 297 296 297 299 300 302 301 302 303 303 302 302 302 298 295 297 303 304 305 305 303 303 302 302 302 302 302 302 302 302 302 302 301 301 301 300 300 300 300 299 298 298 298 297 297 296 296 297 297 297 297 297 297 297 297 296 296 296 295 296 296 296 296 296 296 295 295 294 295 295 295 295 295 295
286 287 286 285 284 287 295 297 297 300 298 301 300 295 291 300 299 300 303 302 303 302 301 301 301 298 293 294 299 303 304 304 303 301 301 301 301 301 301 301 301 301 301 301 301 301 301 299 300 300 300 300 299 298 298 297 297 296 296 297 297 297 297 298 298 298 298 297 297 297 296 296 297 296 296 296 296 297 296 296 295 296 295 295 295 295 296
288 288 286 285 286 289 294 295 296 299 298 300 297 287 289 300 299 301 303 302 302 302 302 301 300 298 294 296 300 304 303 302 302 300 299 299 298 299 300 301 301 301 301 301 300 299 299 299 300 300 300 299 299 298 298 298 297 296 297 297 298 299 299 299 299 298 299 298 298 297 296 297 297 297 297 297 296 296 296 296 295 295 295 295 295 295 296
286 286 287 287 288 292 293 296 299 298 300 298 289 286 293 299 300 301 304 303 303 303 301 302 298 302 303 304 304 303 302 301 300 300 299 299 299 299 299 300 300 300 300 299 298 298 299 300 300 300 300 299 298 299 299 298 297 298 299 300 299 299 300 299 299 298 299 298 298 298 298 297 297 297 297 297 297 296 296 296 296 295 295 295 295 295 296
288 288 288 287 289 295 297 298 299 300 296 288 289 298 297 299 300 302 304 304 304 304 302 303 303 300 303 302 302 301 301 300 299 298 297 298 299 300 300 300 300 300 299 299 299 299 300 299 300 300 299 299 298 298 298 298 299 301 300 300 300 300 299 298 299 299 299 300 300 299 298 298 297 297 297 297 297 297 296 296 296 296 296 295 295 294 295
285 285 287 284 283 289 300 298 298 298 291 293 298 298 298 300 302 302 303 304 304 304 302 300 299 300 300 300 300 300 300 299 298 297 297 297 296 297 298 299 300 299 298 298 298 299 299 299 299 299 299 298 298 299 298 299 300 300 301 301 300 299 299 299 299 299 300 300 300 300 299 298 298 297 297 297 297 297 297 296 296 296 295 296 295 295 295
288 286 284 286 292 296 301 301 295 298 299 300 299 301 299 301 303 303 303 304 305 305 302 299 300 300 300 300 300 300 299 298 298 298 298 298 298 298 299 299 299 299 298 299 299 299 299 299 299 299 299 298 298 298 298 301 300 301 301 301 300 300 299 299 299 299 299 300 300 300 299 298 298 298 297 297 297 297 297 296 295 295 295 295 295 294 294
290 290 292 295 295 297 299 297 297 297 299 298 299 302 303 301 302 305 304 303 304 304 300 300 300 299 300 300 300 299 298 297 297 297 297 297 298 298 298 298 299 299 298 298 298 298 298 299 299 299 300 299 299 298 300 299 300 300 300 300 300 299 299 299 299 299 300 299 300 299 300 299 298 297 297 298 296 297 297 296 295 295 294 295 294 294 294
294 295 295 295 295 297 298 297 297 297 299 299 300 302 301 303 304 304 304 303 301 300 301 299 299 300 300 300 299 298 298 297 297 298 297 297 298 299 299 299 299 299 299 298 298 297 298 298 299 300 300 300 298 300 299 300 300 301 300 300 300 300 299 299 299 298 299 298 299 299 299 299 299 298 298 297 297 297 296 296 295 295 294 294 294 294 294
292 290 295 295 295 295 297 298 298 298 298 299 301 302 303 303 303 303 303 301 300 300 301 300 299 299 300 299 298 298 297 297 297 297 297 297 297 297 297 298 298 297 297 296 296 297 297 298 299 299 300 300 301 301 299 300 300 301 301 300 300 300 300 300 300 299 299 298 298 299 299 299 299 299 298 298 298 296 297 296 296 295 295 294 294 294 293
292 292 295 295 296 296 296 297 299 300 300 300 300 302 302 303 303 303 302 301 300 301 300 300 299 299 299 298 297 297 297 297 297 297 297 297 297 297 298 297 296 296 296 296 297 297 297 296 297 298 298 299 300 299 299 299 300 301 300 300 300 300 300 300 299 299 299 293 296 299 299 299 298 298 298 298 297 297 296 296 295 295 295 294 293 294 293
295 295 295 295 296 297 297 297 298 300 300 300 299 300 301 301 301 300 301 302 301 301 300 301 300 299 298 298 298 298 298 297 297 297 297 297 296 296 296 296 296 295 296 295 296 296 295 295 296 297 298 299 298 300 299 299 299 300 300 299 300 300 300 300 300 299 300 300 299 299 299 300 300 300 299 299 298 298 299 298 298 297 296 295 296 296 295
291 293 297 297 294 293 299 298 299 299 299 300 299 299 299 300 299 300 299 300 301 301 301 301 300 298 298 298 298 297 298 297 298 297 297 297 296 296 296 296 296 296 296 296 295 296 296 297 297 298 299 298 298 298 298 299 300 300 299 299 299 299 299 300 300 299 300 300 300 300 299 298 298 300 292 291 296 299 298 292 286 287 289 295 296 296 296
292 297 297 299 299 298 299 300 299 299 299 300 299 299 299 300 300 300 299 298 298 299 300 302 300 299 298 298 298 298 297 297 297 296 297 295 295 294 295 295 295 295 295 296 296 297 297 297 297 298 298 298 298 298 298 298 299 300 299 298 299 300 299 299 298 300 300 300 300 300 300 299 299 297 298 298 288 287 290 291 290 287 284 285 285 286 291
299 298 298 298 298 298 298 296 298 297 299 300 300 300 300 300 300 300 300 299 298 298 299 300 301 299 298 298 297 296 296 296 296 296 296 295 294 294 295 295 294 295 295 296 296 296 296 297 297 298 298 298 298 298 298 299 300 300 300 300 299 299 300 300 297 299 300 300 300 299 298 299 298 297 296 296 298 291 287 288 288 288 288 286 286 285 285
298 297 297 297 297 296 297 297 298 298 299 300 299 298 299 299 299 301 300 299 300 299 298 298 299 299 298 297 298 298 296 296 296 296 295 294 294 294 294 295 295 295 296 297 297 297 296 296 297 297 298 298 298 298 298 299 299 300 300 301 300 300 300 299 298 297 298 299 299 299 298 297 297 297 296 295 294 296 296 288 286 288 288 287 285 284 284
297 296 297 296 296 296 297 297 297 297 298 299 298 298 299 299 299 300 300 300 299 300 299 299 298 298 298 297 297 297 296 295 294 294 295 294 294 294 294 295 296 296 297 297 297 297 296 296 297 297 298 298 298 298 298 298 299 300 300 301 302 300 299 299 299 299 299 299 299 298 298 297 297 297 296 297 296 295 295 296 295 292 287 285 286 287 287
297 298 298 297 296 295 297 298 297 297 298 299 299 298 299 299 299 300 300 300 300 300 300 299 299 298 298 297 296 296 295 295 294 295 295 294 294 294 294 295 296 297 297 297 297 296 295 296 296 297 298 298 298 298 298 298 299 300 301 301 300 294 290 293 300 300 300 300 299 299 298 298 297 297 297 296 296 295 295 294 294 294 296 297 291 287 293
298 297 298 298 297 296 297 295 296 297 298 298 298 298 299 299 299 298 298 298 299 299 299 299 297 296 296 296 296 295 295 294 295 295 295 295 295 295 295 295 296 296 296 296 296 296 296 296 297 297 298 299 298 298 298 299 299 300 300 300 300 299 297 296 300 301 300 300 300 299 298 298 298 297 296 296 295 295 295 295 295 295 295 296 297 292 287
297 297 296 296 299 298 297 296 297 297 297 298 299 299 299 298 297 297 297 297 298 297 296 297 297 297 297 297 297 295 295 295 295 295 295 295 295 295 295 296 296 295 296 296 297 297 297 297 297 298 299 300 299 299 299 299 299 300 299 299 299 299 299 299 300 300 300 300 300 300 295 296 298 298 296 297 295 297 296 296 295 296 296 296 297 299 293
296 296 296 296 297 297 296 296 296 296 296 297 297 298 299 298 296 296 296 296 296 295 296 296 296 296 297 297 297 296 295 295 296 296 295 295 296 296 296 296 296 297 297 297 297 297 298 298 298 298 299 300 299 299 300 300 299 300 300 301 300 300 300 301 301 301 300 299 299 291 294 296 298 298 296 297 297 295 294 296 295 294 295 296 293 295 295
295 296 296 297 297 297 297 296 296 296 296 297 298 297 298 298 296 295 295 295 296 295 295 295 295 295 296 296 297 297 296 296 295 295 294 294 295 295 295 296 295 294 295 296 297 298 298 298 299 299 301 299 299 299 300 300 299 299 300 300 300 293 290 289 292 300 300 298 297 296 297 297 297 296 294 295 295 295 296 297 295 296 294 296 296 295 295
295 295 295 296 296 295 295 295 295 295 296 297 297 296 297 296 294 294 294 294 294 295 295 295 295 295 295 296 296 296 295 295 294 293 293 294 294 294 295 296 298 294 298 298 298 299 299 299 299 301 301 300 299 299 299 299 299 298 299 294 299 298 290 285 294 294 296 297 297 297 295 297 297 297 295 295 295 295 296 295 295 294 295 295 295 296 296
295 294 293 293 294 294 294 295 295 295 296 296 297 297 297 296 296 295 295 294 294 294 294 294 295 295 295 295 294 294 294 294 293 292 292 292 292 294 296 298 299 299 299 298 298 299 300 299 300 301 300 299 299 299 299 300 299 299 299 299 299 299 292 289 293 296 294 294 295 297 297 296 298 297 297 296 297 295 296 295 294 294 295 296 296 297 297
298 298 297 297 297 295 294 294 296 296 296 297 297 296 295 295 295 294 294 294 294 293 294 294 295 294 294 294 294 293 293 292 290 290 289 288 290 293 296 297 299 299 299 299 299 299 300 301 302 300 299 299 299 299 299 300 299 300 300 299 299 298 297 296 294 295 297 294 295 296 295 297 297 297 297 295 296 296 294 293 294 294 295 295 297 297 293
299 299 300 299 300 299 298 297 296 296 296 295 295 295 295 295 294 294 294 294 293 294 295 295 294 294 293 293 292 292 291 290 289 288 288 288 289 292 296 296 297 298 297 297 298 298 300 302 302 300 299 299 299 299 300 300 300 300 300 299 299 298 298 297 297 296 295 296 296 297 296 296 296 292 294 296 297 295 295 294 295 294 295 294 295 296 296
299 298 297 298 298 298 298 298 298 298 297 296 296 295 294 294 295 294 293 294 295 295 294 293 293 293 292 292 289 289 289 289 288 288 288 288 289 293 295 295 295 296 296 296 298 300 300 300 292 291 299 299 299 299 299 300 300 300 299 298 297 297 297 296 296 296 295 296 296 297 296 294 294 294 294 295 296 296 296 296 296 295 295 296 295 295 296
299 299 298 298 298 298 298 298 298 298 297 297 295 294 294 294 294 295 295 295 294 294 294 294 293 293 292 291 290 290 290 289 289 289 289 288 290 292 295 296 296 296 296 295 297 299 299 299 290 286 295 298 298 299 298 288 299 299 299 298 299 298 297 297 297 296 296 295 295 296 295 293 295 296 293 295 296 296 296 296 296 296 295 295 295 295 294
298 299 298 298 298 298 298 297 298 298 297 296 296 295 294 294 294 294 294 295 295 295 295 295 294 294 293 291 290 288 288 288 288 288 288 288 291 294 295 295 295 296 295 296 299 298 298 295 286 290 298 298 299 299 295 285 288 296 298 298 298 297 296 297 296 295 295 297 293 296 295 295 296 296 296 296 296 296 295 295 296 295 296 296 296 295 294
296 297 297 297 298 298 297 296 297 297 297 296 295 295 295 295 294 295 294 294 295 294 294 294 294 293 292 291 291 292 290 288 287 288 288 290 293 295 294 296 297 298 298 301 301 299 297 293 295 297 297 298 298 299 293 284 285 296 297 298 298 297 297 296 296 296 295 297 295 295 296 295 296 296 296 297 296 295 293 295 296 296 296 297 296 295 295
297 297 297 297 297 296 296 296 296 297 298 297 295 294 293 293 294 294 294 293 293 294 294 294 293 292 292 293 293 292 292 292 291 290 291 292 294 295 296 297 298 299 299 292 298 300 294 289 294 299 299 299 299 298 295 289 287 294 297 297 297 296 297 296 296 296 296 296 295 290 294 294 295 295 294 295 296 295 296 296 295 295 296 296 297 296 296
297 297 297 297 296 296 296 296 295 296 297 296 296 295 294 294 294 294 293 293 293 294 295 294 293 293 293 293 293 293 292 292 292 293 294 293 293 294 293 294 297 298 297 297 299 298 292 291 296 298 300 299 299 294 298 289 291 296 297 297 296 296 296 296 295 295 295 295 294 295 295 295 294 294 294 295 295 296 296 296 297 296 297 296 296 296 297
297 297 297 297 296 296 296 296 296 295 295 296 295 295 295 295 295 294 294 294 293 294 294 295 292 294 295 295 294 294 293 292 293 294 294 293 293 293 293 295 299 298 293 291 292 294 294 295 295 293 300 299 298 290 290 294 295 296 296 296 296 295 296 295 295 295 295 295 296 296 296 296 296 295 295 296 295 295 296 295 296 296 296 296 296 297 296
296 296 297 297 296 296 296 295 295 296 295 295 295 295 295 295 296 295 294 294 294 294 294 295 293 292 294 295 294 293 293 293 293 293 293 296 297 297 296 297 299 298 288 292 295 296 296 297 297 298 294 296 296 289 287 295 296 296 296 296 294 295 295 295 296 296 296 296 295 296 296 296 295 295 295 295 296 295 295 295 296 296 295 297 297 296 296
297 297 297 297 296 296 296 296 295 295 295 294 295 295 295 295 296 294 293 293 294 294 294 294 294 294 294 295 294 294 293 293 293 293 293 293 294 296 298 299 299 295 287 292 294 296 296 297 298 295 289 288 288 287 292 296 297 297 296 296 295 295 295 295 296 296 296 295 295 296 296 293 295 295 295 295 295 295 295 295 296 296 296 296 297 297 297
297 297 297 297 297 295 295 295 295 295 296 296 295 294 295 295 295 295 294 294 293 294 293 295 294 294 294 294 295 295 295 295 294 294 293 292 292 294 296 291 294 293 290 289 295 296 297 297 295 289 288 287 287 287 294 296 297 296 297 296 297 296 295 295 295 296 295 296 296 295 296 295 295 295 295 295 293 295 295 295 296 296 295 295 296 296 296
297 297 297 292 295 296 296 296 297 297 296 294 294 293 294 295 295 295 295 294 294 294 295 295 295 295 295 295 295 296 297 296 296 296 297 296 295 297 298 292 295 291 289 288 295 296 297 290 289 287 287 287 286 290 295 295 296 296 297 296 296 295 295 296 295 296 296 295 295 295 296 296 295 295 296 296 296 295 294 293 293 295 295 296 296 296 296
297 297 296 297 297 297 297 297 296 295 295 294 293 293 293 294 294 295 295 295 295 295 295 296 296 296 297 296 296 295 294 294 294 295 297 298 298 296 294 290 290 288 288 293 295 296 297 295 289 287 286 286 286 294 295 296 296 297 296 296 296 296 295 296 296 296 296 296 295 294 292 294 295 296 294 293 294 294 294 293 293 294 295 294 294 294 293
296 296 297 297 297 297 296 295 294 294 294 294 295 295 294 294 294 295 295 295 295 295 295 296 296 296 296 297 297 297 297 295 292 293 295 296 297 297 296 296 295 289 288 288 289 289 288 288 288 287 286 286 290 295 296 297 297 296 296 296 296 296 296 296 296 296 296 295 295 295 295 294 294 294 294 294 295 294 294 294 293 294 294 294 294 294 294
297 297 297 297 297 295 295 294 294 294 295 296 296 296 295 295 294 294 294 294 294 295 295 295 295 296 296 295 296 297 298 298 297 296 297 296 296 296 297 292 288 287 290 293 295 294 289 287 286 287 286 286 293 295 296 297 296 296 296 296 296 296 296 296 297 297 297 296 296 295 295 295 295 295 294 294 294 294 293 294 294 293 293 294 294 294 293
297 297 296 296 296 295 295 295 295 296 297 296 296 296 295 295 294 294 294 294 294 293 295 295 295 295 295 295 295 296 297 297 298 300 299 298 297 297 296 296 295 289 289 295 296 296 290 287 286 286 288 291 294 295 296 296 297 296 296 295 295 296 295 294 290 291 295 295 296 296 295 295 296 295 294 294 295 294 294 293 293 291 288 290 293 294 294
296 296 296 295 296 297 297 297 298 298 297 297 297 296 294 294 295 294 295 295 295 294 294 295 295 296 296 296 296 296 296 296 296 293 297 297 297 294 293 295 295 291 292 292 294 295 296 295 294 291 290 292 294 295 295 295 295 295 292 294 295 295 295 293 293 294 294 293 294 295 295 295 295 295 294 294 293 293 294 292 293 293 293 292 293 293 294
298 298 298 297 297 297 297 298 298 299 298 297 297 295 295 295 296 295 295 289 295 295 295 295 294 296 296 296 295 296 296 296 295 295 293 294 296 296 294 290 294 293 293 293 294 296 296 295 291 289 289 293 294 295 290 290 293 294 294 293 292 294 293 294 294 294 294 293 293 293 293 294 294 294 293 294 294 293 293 293 293 293 293 293 294 293 293
Wind_Speed
2 1 0 1 2 1 3 7 9 12 12 11 15 13 5 11 8 7 8 11 9 6 17 21 22 21 19 18 18 16 15 13 13 14 14 14 14 14 14 13 13 15 14 13 14 13 13 13 13 12 11 10 9 8 8 8 8 8 8 9 9 9 9 9 8 8 8 7 8 9 9 10 10 10 10 9 9 9 9 9 8 9 9 9 9 9 9
1 3 1 2 4 2 2 5 5 6 13 15 14 12 6 11 5 2 11 14 15 5 12 16 17 14 15 15 15 15 15 15 15 15 16 16 15 15 15 14 14 14 14 14 14 14 13 14 13 12 11 10 10 9 8 8 8 8 8 9 9 9 9 8 8 8 9 8 9 8 9 10 9 9 9 9 9 10 10 9 9 8 9 9 9 10 10
1 3 1 1 2 5 6 3 1 2 3 4 1 3 3 5 4 1 8 11 9 1 6 13 15 13 14 13 15 17 18 17 17 17 17 17 16 15 14 15 15 14 14 14 15 14 13 14 14 12 10 10 9 9 8 8 8 8 9 9 9 9 8 8 8 9 8 8 8 9 9 9 9 10 10 9 9 10 9 9 9 9 9 10 10 10 11
3 2 1 1 1 0 3 3 3 4 6 8 5 5 7 8 6 6 8 4 5 4 10 14 15 16 18 19 19 20 16 19 19 18 17 17 16 15 15 15 15 15 15 15 15 14 13 13 13 11 10 10 10 9 9 9 8 8 9 9 9 9 8 9 9 9 8 9 9 9 9 10 10 10 10 10 10 10 9 10 9 9 10 10 10 9 9
1 1 1 3 4 2 5 6 7 8 1 2 2 4 1 3 12 10 6 9 7 10 14 17 18 22 21 20 22 18 17 18 18 18 17 16 16 16 16 17 16 16 16 15 14 13 12 12 12 12 12 11 11 10 10 9 8 9 9 9 9 9 9 9 9 8 8 8 9 9 9 10 9 9 10 10 10 9 10 9 9 10 10 10 10 9 9
2 2 1 1 3 5 3 3 1 4 5 8 7 4 6 6 8 4 0 3 10 16 16 19 21 23 26 24 19 17 17 17 16 16 17 18 17 16 16 16 16 15 13 12 13 14 13 12 12 12 12 12 11 10 10 10 10 10 10 10 10 10 10 10 9 8 8 9 10 9 9 9 9 9 9 10 9 8 8 9 9 10 10 11 9 9 9
2 2 3 2 6 4 3 0 2 3 3 3 2 2 4 6 2 1 4 9 15 20 21 21 21 17 13 12 17 17 18 19 17 18 17 17 17 18 17 16 15 15 15 14 14 13 12 12 12 12 11 11 11 11 11 11 10 11 11 11 11 10 10 9 9 9 9 9 10 9 9 8 9 9 9 9 9 8 8 9 9 9 8 9 8 8 8
2 2 4 4 1 2 1 2 2 3 3 2 2 3 6 9 10 7 7 8 10 11 10 10 12 14 13 13 13 16 17 18 19 17 17 18 19 19 17 18 16 16 16 16 15 13 12 12 12 12 12 11 12 11 11 11 11 11 11 11 11 9 10 9 9 9 9 9 9 8 8 8 9 9 9 9 9 8 8 8 8 7 7 7 8 9 9
3 2 5 2 4 2 2 2 5 9 6 9 8 7 6 12 9 8 6 8 10 11 11 11 12 12 11 9 7 12 18 18 18 20 20 21 20 18 16 17 16 15 16 16 15 14 13 12 13 12 12 12 12 11 11 11 11 11 11 11 10 9 9 8 8 8 8 9 8 8 8 8 9 8 8 9 8 7 8 8 8 7 7 7 7 8 9
1 3 4 2 2 4 3 7 2 5 3 5 1 2 2 4 9 9 9 12 14 14 15 15 15 15 13 10 12 14 16 17 14 14 15 15 15 15 15 14 14 15 15 15 14 14 14 14 13 12 12 12 12 12 11 11 11 11 11 10 9 9 8 8 8 7 8 8 8 7 7 8 8 7 7 7 7 6 7 7 8 7 6 7 7 8 9
2 2 5 3 4 3 1 2 3 4 1 3 2 1 3 6 13 12 13 15 16 19 21 19 18 16 14 16 16 15 16 13 13 15 15 16 15 15 17 18 17 17 16 17 16 15 15 14 12 13 13 14 12 12 11 11 11 11 10 10 9 9 8 7 7 7 7 7 7 7 8 7 6 7 7 6 5 5 5 6 7 7 7 8 8 8 8
2 3 3 4 2 1 1 3 4 5 3 2 3 2 2 8 15 15 15 18 19 17 19 22 20 17 12 15 15 18 17 15 14 15 17 15 14 13 14 14 15 16 16 16 15 15 15 14 13 14 14 13 13 12 11 10 11 11 10 10 9 8 7 6 6 6 5 6 6 6 7 6 6 6 5 5 5 4 5 5 6 7 7 7 9 8 8
2 4 1 2 2 3 1 4 6 4 4 3 4 4 0 3 11 13 16 18 19 19 18 18 18 13 4 7 17 21 19 18 15 11 12 17 19 18 17 16 17 15 15 15 15 15 13 14 13 13 12 13 12 11 10 11 11 10 9 8 8 7 6 6 6 6 5 5 6 5 5 5 5 5 4 4 4 4 5 5 6 7 7 7 7 8 8
5 2 4 3 1 1 5 2 5 4 4 4 5 1 2 6 11 9 8 12 14 17 20 13 2 6 10 15 18 21 22 20 16 15 12 13 13 13 14 17 17 15 14 14 15 14 13 14 13 11 13 12 11 10 10 12 11 8 8 8 7 7 7 7 7 6 5 4 4 4 4 4 4 4 3 3 3 4 5 5 7 7 7 6 6 7 7
3 0 1 1 4 2 9 13 5 0 2 0 1 0 0 4 10 13 11 12 13 13 10 4 8 11 15 18 19 20 20 20 19 18 18 17 16 15 15 15 15 16 14 15 15 14 13 13 12 12 14 13 11 10 11 11 8 8 8 7 8 8 7 7 6 6 5 5 4 3 3 3 4 4 2 3 3 4 4 5 6 7 8 7 7 7 6
3 4 5 2 1 3 12 10 5 6 2 2 2 3 2 4 8 11 10 11 13 13 9 11 12 14 16 17 20 19 18 18 17 17 18 18 18 18 18 19 17 16 15 14 13 13 12 11 11 11 13 12 11 11 12 8 7 7 7 8 8 8 7 7 6 6 5 4 4 3 4 3 3 2 2 2 3 4 4 5 5 6 7 7 7 8 8
3 1 1 1 1 3 2 3 2 3 2 2 2 1 3 8 8 7 9 12 11 11 13 12 14 13 15 17 18 18 17 18 18 18 17 18 19 18 18 18 17 16 17 17 14 13 11 12 10 11 11 12 12 12 9 8 9 8 8 7 8 8 8 7 6 6 5 4 4 3 3 3 2 2 2 1 3 3 3 4 5 6 6 6 7 7 7
1 3 3 3 2 2 4 1 2 3 3 1 2 4 4 4 7 10 10 10 11 12 14 15 11 13 16 18 16 16 18 17 17 18 17 16 17 17 16 17 17 15 15 15 15 14 12 12 11 10 10 11 12 10 8 8 8 9 8 8 8 8 8 7 7 6 6 5 4 3 3 2 1 1 1 1 2 3 3 4 4 5 6 6 6 7 7
3 2 3 1 2 4 2 2 1 1 2 2 1 3 2 4 7 5 6 11 12 14 13 15 15 16 17 17 17 17 16 18 18 18 17 16 18 18 17 16 15 13 13 13 14 15 13 12 11 9 10 9 10 8 8 7 8 8 9 9 8 6 7 6 6 6 6 5 5 4 3 2 2 1 1 0 0 1 2 3 4 4 5 5 6 6 6
2 1 2 3 3 4 4 2 3 2 0 1 0 1 2 5 5 7 11 12 12 12 12 14 16 17 17 19 18 16 16 17 17 17 18 17 15 14 14 14 13 12 13 15 15 15 13 9 7 8 9 9 9 8 8 8 7 8 8 8 8 7 7 6 6 6 6 4 4 4 4 3 2 2 1 1 1 1 2 2 3 4 4 5 5 5 6
2 3 4 3 4 4 4 4 4 2 1 2 3 5 7 9 10 10 9 9 14 13 13 15 17 18 17 18 20 18 16 16 15 14 15 17 17 17 16 14 14 13 13 13 13 12 9 8 9 8 9 7 8 9 8 8 8 8 7 7 7 7 6 5 5 5 5 5 5 4 3 3 2 2 1 1 1 1 1 2 2 3 3 3 4 4 5
2 3 2 6 2 1 4 8 7 5 4 4 6 6 8 10 12 13 13 9 8 11 16 17 18 19 17 17 18 18 16 16 14 14 16 16 17 15 13 11 12 12 14 13 12 13 10 10 10 9 9 8 7 8 8 7 8 8 7 6 6 6 6 6 5 5 5 4 4 4 3 3 3 2 3 3 3 2 0 3 1 2 3 3 4 4 4
0 1 2 4 3 2 3 1 6 5 6 6 8 10 10 9 10 13 15 14 11 12 12 13 18 18 18 17 16 16 16 17 15 16 17 15 12 12 13 14 12 15 14 13 13 13 11 10 10 9 8 8 8 7 8 8 8 8 8 6 6 5 5 6 6 6 5 4 4 3 3 3 2 2 2 4 6 7 7 4 4 5 6 8 6 6 4
1 2 2 4 0 3 1 2 5 5 5 6 6 5 6 10 12 13 14 16 17 13 13 11 14 19 18 18 16 17 12 12 15 14 13 13 16 15 13 13 13 14 13 15 15 13 10 10 10 9 8 8 8 8 7 7 7 7 8 7 6 5 5 5 5 5 4 5 4 4 4 3 2 2 2 1 2 6 8 7 7 7 7 8 8 7 8
1 1 2 2 0 2 2 4 4 4 4 5 6 7 8 9 9 10 13 11 14 18 15 13 11 15 17 14 14 14 15 14 13 16 17 15 13 13 13 13 13 13 13 12 11 10 10 10 9 9 9 8 7 8 7 7 7 7 8 7 8 6 5 5 5 5 4 4 4 5 5 4 4 3 2 2 1 1 3 7 7 6 6 6 5 6 7
3 5 5 5 5 4 4 6 5 3 4 4 5 5 6 8 10 10 11 12 11 13 16 16 14 11 13 15 12 15 15 14 16 16 13 13 12 11 11 11 11 10 11 11 11 11 10 11 10 9 9 8 7 7 7 7 7 8 8 7 8 7 5 6 6 5 5 5 5 5 4 4 3 3 3 2 1 2 2 0 2 4 7 7 6 7 8
4 8 10 8 4 2 2 0 2 5 4 4 6 8 8 9 9 9 9 10 12 13 14 16 16 13 10 13 16 16 17 13 14 14 14 14 14 12 10 11 10 10 11 10 10 11 12 10 9 9 9 9 8 7 7 8 7 7 7 6 6 6 8 7 6 6 5 5 4 4 4 5 4 4 4 3 3 3 3 2 3 3 2 2 7 6 2
7 2 3 1 4 6 6 1 4 6 6 7 8 10 10 10 10 11 11 11 11 11 11 14 15 15 14 12 14 12 12 15 15 13 14 14 11 10 9 10 8 10 8 9 10 10 10 10 10 10 10 9 8 8 8 8 8 7 6 6 6 5 5 6 5 5 5 5 4 5 5 5 4 4 3 3 3 3 3 3 4 3 3 2 2 2 5
2 2 0 1 3 7 7 7 7 7 7 6 8 9 12 13 12 12 13 12 13 13 12 11 12 16 17 14 12 14 15 15 14 15 14 13 12 10 10 11 9 12 9 9 9 10 10 11 10 10 9 8 8 8 8 8 7 6 6 6 6 6 5 6 5 4 4 4 4 4 4 2 3 4 3 3 3 3 3 4 4 3 4 3 3 2 5
1 0 3 6 8 11 11 8 7 7 8 9 11 12 13 14 12 11 12 12 12 12 13 13 10 10 14 17 16 15 15 15 14 12 13 10 8 9 10 10 10 9 10 10 10 10 11 10 10 11 9 8 8 8 8 7 7 7 7 7 7 7 6 6 5 4 4 5 5 3 3 3 4 4 4 4 4 4 4 4 4 4 5 3 2 4 4
4 5 6 6 8 8 9 9 7 8 8 9 11 12 12 13 13 12 12 12 10 11 13 13 13 13 11 13 14 13 14 13 13 13 11 9 10 9 9 11 11 10 11 11 11 10 10 10 9 9 8 8 8 7 7 7 7 6 5 5 5 7 8 9 7 5 5 5 4 5 5 4 4 4 4 4 4 4 4 4 4 4 4 4 4 4 4
10 9 8 6 5 8 8 6 7 8 7 8 11 12 11 13 14 13 11 11 11 13 14 14 14 15 12 10 11 12 12 12 11 11 9 9 10 10 10 10 10 10 9 10 9 9 9 9 10 8 7 8 8 8 8 8 7 6 6 6 6 5 6 7 5 5 3 4 4 5 5 5 5 5 5 5 5 5 4 4 4 3 3 4 4 4 3
11 9 6 7 7 7 7 6 8 8 9 9 8 8 8 8 9 10 9 9 9 10 12 12 11 12 12 12 12 12 12 12 11 9 9 9 9 10 10 10 10 11 10 9 9 9 9 10 9 7 7 8 8 8 9 8 8 7 6 6 6 6 6 7 5 4 4 3 4 5 5 6 5 5 6 6 5 4 4 4 3 3 4 4 4 4 2
12 9 11 13 12 10 11 9 7 8 6 6 7 8 8 8 9 9 10 9 10 10 10 11 11 11 12 13 13 12 12 9 6 7 9 9 8 8 9 8 9 10 9 8 8 7 6 8 8 7 8 8 8 7 8 9 8 7 6 6 6 6 6 6 5 5 4 5 5 5 4 4 5 5 6 5 5 5 5 4 4 4 3 5 4 3 1
5 5 6 9 2 7 12 12 10 10 9 8 7 7 8 9 9 10 11 11 11 9 8 8 10 12 12 12 13 13 13 13 12 12 11 10 9 8 8 7 7 8 8 7 8 7 7 7 8 8 8 7 7 7 7 8 8 7 6 7 7 7 8 6 6 5 5 5 4 4 4 4 5 5 5 5 5 5 4 5 5 5 5 5 5 3 2
3 5 5 4 5 8 10 11 10 12 11 10 9 8 8 9 10 10 12 9 8 9 9 9 12 11 12 13 11 12 12 11 11 11 10 10 9 7 9 10 10 10 9 8 7 7 7 7 8 10 8 7 6 7 7 7 7 7 7 7 7 7 6 5 5 5 4 4 4 4 5 5 4 4 4 5 5 5 5 5 5 6 6 5 5 5 4
4 6 6 6 7 9 9 8 9 10 9 9 9 9 8 9 10 9 8 9 9 10 10 10 10 11 11 13 12 10 9 9 10 10 10 8 6 6 10 10 10 10 9 9 9 7 6 6 8 10 8 6 7 7 8 9 6 5 5 6 6 6 6 6 5 5 5 5 5 5 4 3 4 4 5 5 5 5 6 6 6 6 6 6 4 3 5
4 5 7 8 8 9 9 7 7 8 8 9 8 9 10 9 8 9 9 9 10 11 12 13 14 12 9 8 8 8 8 8 9 9 9 10 8 10 9 10 9 9 10 11 9 8 7 8 10 8 6 6 7 7 8 11 9 6 5 6 6 7 7 7 6 6 6 5 5 4 5 5 5 5 5 4 5 5 5 6 6 6 6 6 4 4 3
5 4 4 4 5 7 8 6 6 7 10 11 9 7 7 10 10 9 9 9 9 10 11 9 8 9 10 10 9 8 8 8 9 10 9 10 9 11 10 10 10 10 8 6 7 8 8 9 8 7 7 7 8 7 8 10 9 6 5 5 6 6 7 7 7 7 7 6 5 5 5 5 5 5 5 5 5 5 5 6 6 5 6 6 6 6 6
6 6 8 8 7 7 8 8 8 8 7 9 10 9 8 9 10 10 9 9 8 8 10 10 11 9 10 11 11 10 9 9 9 10 10 10 9 9 7 6 6 6 6 9 8 7 10 13 10 7 7 7 7 6 7 10 10 6 5 5 6 6 6 6 6 7 6 5 6 6 5 5 6 6 6 6 5 5 6 6 6 6 6 6 6 6 6
6 6 6 7 8 8 8 8 8 7 7 7 8 9 10 10 10 10 10 10 10 9 10 11 11 10 12 12 11 10 9 8 10 11 10 9 9 8 8 10 8 7 6 6 6 7 11 10 9 8 7 7 7 8 7 10 9 6 6 6 6 6 6 6 7 7 7 7 7 6 6 6 6 6 6 6 6 6 6 6 6 6 6 7 7 7 6
6 7 7 7 7 8 8 7 7 7 5 6 7 9 10 11 11 11 10 10 10 10 10 10 13 13 12 11 9 9 9 10 9 9 11 11 11 9 8 8 8 8 10 10 7 6 7 7 8 8 8 7 7 11 10 8 8 7 6 6 6 7 7 7 7 7 7 6 6 7 6 6 6 6 6 6 6 6 7 6 6 6 6 6 7 7 7
7 8 8 7 7 7 7 8 9 9 8 6 7 8 10 11 9 9 9 10 11 10 10 10 10 11 11 10 10 10 9 9 9 9 8 8 9 10 11 8 7 8 13 10 8 6 7 6 7 6 10 10 8 12 13 8 7 7 7 7 7 7 7 7 7 7 6 6 6 6 6 6 6 7 7 7 7 7 7 7 7 7 7 7 7 7 7
8 7 7 7 7 7 7 7 6 6 8 7 7 8 9 8 8 10 10 10 10 11 11 10 9 9 9 10 10 9 8 8 8 7 8 7 4 5 4 4 5 8 13 9 8 7 7 7 7 10 13 13 13 12 9 8 8 8 7 7 8 8 7 7 7 7 7 6 7 7 7 7 7 7 7 6 5 7 7 7 7 7 7 7 7 7 7
8 7 8 8 8 8 7 7 8 10 8 7 8 8 8 8 8 9 11 11 11 11 10 10 10 10 9 9 9 10 9 10 9 9 8 8 7 9 9 8 5 4 9 11 7 7 7 7 10 12 12 14 13 12 8 7 8 8 8 8 8 8 8 8 8 8 8 8 8 7 7 7 8 8 7 8 8 8 7 7 8 8 7 7 7 7 7
9 7 7 8 8 8 8 9 8 6 7 8 8 8 8 8 9 8 9 10 10 11 11 11 10 11 11 11 10 9 7 7 8 10 11 11 10 8 8 10 8 7 11 12 7 8 8 12 14 13 13 13 12 10 8 8 7 7 8 8 8 8 8 8 8 8 8 8 8 8 8 8 8 7 8 8 8 8 9 10 8 7 7 8 8 8 8
8 7 8 8 8 8 8 6 6 7 8 8 8 7 7 8 7 7 8 9 10 11 10 11 11 11 12 12 10 8 7 5 5 5 5 4 7 8 7 13 12 14 11 8 7 8 7 10 11 13 14 13 13 8 8 8 8 7 8 8 8 8 8 8 8 8 8 8 9 9 9 8 7 7 8 8 8 8 8 7 6 8 8 8 7 8 8
9 9 9 9 8 7 6 6 7 7 8 9 8 7 8 8 8 7 7 7 7 7 8 8 9 9 10 10 10 11 11 11 7 8 8 7 6 5 5 5 8 12 14 11 12 10 12 12 13 14 15 13 10 8 8 8 7 8 8 8 8 8 8 8 8 8 8 8 8 8 8 8 8 8 8 8 8 8 8 7 6 7 8 6 6 8 9
9 9 8 8 8 9 8 8 8 7 7 7 7 6 8 9 8 7 7 7 7 7 7 8 8 8 8 8 9 8 7 8 10 8 10 10 9 8 8 8 9 11 11 8 9 9 12 14 13 14 14 11 8 8 8 8 8 8 8 8 8 8 8 8 8 9 9 9 9 9 9 9 9 8 9 9 8 8 8 8 8 6 6 6 6 8 8
7 6 6 6 7 7 8 7 7 8 7 7 7 6 7 8 7 7 7 7 8 8 7 7 7 7 7 7 8 8 7 7 8 6 6 10 10 9 8 8 8 11 11 8 9 9 11 16 15 14 10 7 8 8 8 8 8 9 9 10 9 8 9 11 10 10 9 8 8 8 9 9 9 10 9 8 8 8 6 6 6 11 14 10 8 6 6
8 8 8 9 8 9 10 10 9 8 8 8 7 7 8 8 8 8 8 9 7 7 7 7 6 7 7 7 6 7 7 7 8 8 4 5 6 8 9 8 8 8 10 9 8 8 7 8 8 9 10 9 8 9 8 9 8 9 10 9 10 9 9 9 8 9 9 10 9 9 8 8 8 9 8 9 9 7 8 9 7 6 6 7 7 7 7
8 7 6 7 7 7 8 8 7 7 7 7 7 7 8 8 7 7 7 9 8 9 9 8 8 7 6 7 8 7 7 8 7 7 8 6 5 5 7 8 6 7 8 8 9 9 8 8 9 9 10 9 9 9 10 12 9 8 9 10 10 10 9 9 8 9 9 10 9 9 9 9 9 9 9 8 8 9 9 7 7 7 8 6 6 6 6
Wind_Direction
102 257 235 220 159 227 201 200 180 186 192 179 198 211 170 163 205 230 168 185 200 190 189 190 188 180 173 167 166 161 153 141 145 147 148 150 150 150 150 151 147 140 139 136 135 135 133 134 129 122 119 117 112 106 108 107 107 108 111 109 106 101 96 90 84 81 80 72 71 71 68 66 62 58 57 54 52 50 49 48 44 40 38 36 34 34 36
122 55 261 196 185 154 182 210 227 217 183 190 198 201 167 195 202 14 169 175 204 186 194 182 182 173 162 157 155 150 151 156 152 154 155 155 154 157 157 153 146 142 139 139 140 137 139 137 132 130 129 129 125 120 116 114 112 114 113 108 109 104 99 94 90 89 87 81 77 72 66 62 58 56 53 52 50 50 48 47 45 39 38 37 34 32 33
227 22 78 108 178 168 214 209 219 153 273 247 321 71 83 77 66 157 166 179 211 347 163 166 167 140 145 146 156 161 160 161 161 162 161 159 158 158 153 147 145 141 141 141 140 140 141 139 136 135 132 127 122 119 119 117 115 117 114 112 108 107 102 99 98 96 91 84 77 69 62 59 57 53 52 51 51 50 48 45 43 40 37 37 33 29 32
198 10 18 116 110 171 238 265 215 165 163 188 183 178 187 177 158 127 136 161 241 191 162 159 159 154 163 167 167 169 170 167 165 164 162 159 158 155 150 148 146 145 146 145 145 145 142 139 136 134 132 132 128 126 123 119 118 118 111 110 109 107 105 102 102 100 96 89 77 68 62 58 55 54 52 51 51 48 47 44 42 41 39 35 33 29 29
217 69 37 105 158 197 271 235 213 178 79 31 69 5 174 267 137 128 148 204 213 152 161 158 171 179 177 174 177 170 167 168 164 164 162 158 159 156 151 152 153 153 151 149 147 143 141 142 141 141 138 135 131 130 124 122 120 116 112 111 110 107 104 104 104 102 100 92 83 73 65 60 56 53 50 50 48 47 45 43 43 42 36 34 30 27 25
149 150 129 185 193 225 224 40 356 172 171 176 173 192 193 198 183 197 330 109 118 144 166 174 175 180 188 186 177 164 158 158 163 164 163 162 160 154 153 155 154 152 146 146 146 146 145 144 139 138 137 130 128 126 124 125 122 118 117 113 110 109 109 109 109 107 104 95 86 77 69 63 59 55 53 50 47 46 45 44 44 42 37 34 29 25 21
162 145 142 167 224 234 68 241 196 210 119 119 184 303 260 207 201 220 159 153 163 173 179 182 182 180 174 168 159 159 161 161 165 166 164 160 156 154 155 157 157 152 145 142 141 140 140 136 133 131 128 127 126 127 128 126 123 120 118 117 114 114 113 114 114 111 104 96 89 82 74 68 64 59 53 51 49 45 46 44 42 41 33 32 25 22 19
71 175 170 209 234 54 24 39 61 143 151 173 157 284 219 217 200 187 175 180 175 164 158 155 164 168 164 146 157 166 170 169 167 165 163 161 158 160 164 159 156 150 148 146 145 142 138 137 138 137 134 135 132 130 131 125 123 123 124 122 121 121 120 119 115 110 104 98 94 88 81 72 67 63 57 51 46 43 47 48 47 44 42 34 27 24 19
197 167 184 226 347 302 139 225 201 179 175 176 184 207 210 192 191 197 165 160 161 157 153 153 150 136 127 134 165 175 179 182 173 165 167 166 166 158 155 152 151 147 141 142 142 138 141 140 139 138 139 139 133 132 129 128 129 131 131 130 131 131 127 123 117 111 107 103 99 93 83 76 69 63 60 53 47 39 47 47 43 40 38 35 32 26 20
197 161 180 206 214 227 207 212 50 185 307 161 146 23 286 159 181 193 168 162 161 152 155 144 138 132 139 173 196 191 187 182 173 165 152 149 145 141 139 138 139 138 138 136 139 141 141 142 142 141 143 139 138 135 134 136 137 138 140 138 140 138 131 126 121 116 112 109 105 96 85 79 73 68 64 61 55 39 46 45 43 36 33 36 36 31 24
157 184 188 190 196 222 203 163 158 166 202 139 204 101 251 170 177 185 174 164 167 162 162 151 141 150 170 198 195 180 176 169 153 141 135 138 139 142 145 148 148 145 144 144 144 141 142 143 144 145 145 143 142 140 141 144 145 146 148 147 147 142 135 131 126 122 117 113 107 99 92 81 74 71 66 63 56 50 48 51 46 44 36 38 37 33 27
191 156 180 213 206 176 150 192 174 186 170 161 183 231 261 165 180 178 174 170 168 167 162 160 165 167 180 202 186 153 155 143 140 139 138 136 136 138 145 147 145 140 137 137 143 145 148 148 149 149 148 147 145 144 147 148 152 154 155 155 148 140 139 137 133 130 126 119 112 104 98 91 79 74 72 69 59 54 51 49 49 43 42 40 39 34 24
164 197 130 1 261 260 224 168 149 162 195 216 209 191 122 103 172 180 181 172 169 163 160 167 183 200 19 86 117 126 130 133 140 137 137 149 151 151 152 145 139 141 147 147 147 149 147 147 150 152 150 148 149 148 149 155 158 158 155 149 148 147 145 144 142 138 133 127 120 107 101 97 91 82 71 71 61 55 54 50 47 44 39 38 40 37 29
187 191 203 212 315 307 127 65 141 180 164 184 200 98 28 171 170 178 180 170 170 171 173 179 77 74 110 109 119 131 142 145 139 133 120 118 126 135 139 140 144 143 142 142 146 148 146 150 152 154 153 150 150 151 158 163 160 153 152 152 152 151 153 151 147 145 139 128 125 123 121 117 106 93 86 75 61 53 52 47 46 45 38 36 38 35 34
42 54 174 126 215 164 153 124 94 287 222 283 53 7 200 202 162 165 174 171 170 169 162 86 114 118 122 130 135 140 143 141 142 142 142 138 134 135 138 148 147 143 145 150 152 148 149 152 155 157 156 153 154 157 167 161 151 156 157 156 158 157 156 154 154 152 147 147 144 141 134 130 115 105 101 83 67 52 42 43 43 41 35 30 30 31 30
178 177 190 193 358 105 176 160 178 183 170 52 212 169 93 158 163 167 163 175 169 169 137 137 134 135 135 136 143 144 142 139 138 138 142 144 145 148 153 152 151 145 146 148 146 149 153 155 156 158 158 155 158 166 165 143 148 150 155 161 161 159 159 159 157 159 159 157 151 151 150 152 142 122 95 76 63 47 35 34 37 39 35 29 27 26 23
202 209 204 32 209 259 217 43 54 342 307 311 185 223 165 158 176 173 167 164 160 145 136 136 139 141 145 143 146 143 142 141 143 143 142 144 147 150 151 153 153 151 150 153 150 151 154 156 158 162 162 157 160 169 148 142 153 157 158 161 167 168 168 165 164 163 167 165 161 165 164 176 156 132 108 65 63 52 35 40 35 38 34 28 25 20 20
285 282 265 332 298 263 249 230 336 321 345 22 200 194 169 206 168 175 171 150 138 139 143 136 143 144 146 142 145 141 141 142 142 142 143 145 146 147 146 147 153 150 143 145 150 154 158 162 163 167 166 160 165 165 143 158 159 158 158 164 172 178 174 170 170 169 173 173 176 173 181 191 169 93 64 56 45 46 39 38 39 37 30 25 21 18 18
159 217 111 284 318 320 290 271 31 308 272 307 259 216 216 147 155 147 121 143 146 147 147 142 143 144 148 143 143 145 147 148 148 146 143 142 145 146 149 151 143 136 141 147 155 157 161 168 167 169 164 167 164 147 153 158 161 161 165 167 169 172 176 174 167 177 179 184 185 186 197 199 190 180 190 278 353 17 32 33 35 32 27 21 19 13 11
221 0 342 308 296 269 285 263 241 228 55 44 12 155 121 127 122 132 141 135 135 143 140 142 143 147 149 146 149 151 152 150 150 148 146 144 142 144 139 143 142 137 147 155 158 161 164 166 160 161 170 169 156 151 152 155 161 164 164 171 171 177 178 177 177 182 192 162 188 193 198 205 204 193 201 238 281 342 12 23 13 26 16 16 12 8 0
282 272 233 278 284 258 225 202 211 236 196 158 126 130 133 133 133 130 138 152 152 152 144 144 142 146 154 152 151 152 150 148 146 141 143 149 146 143 149 150 147 149 152 154 158 160 155 159 167 171 169 156 154 152 152 155 160 166 172 173 178 172 172 177 178 177 193 187 202 202 193 205 225 249 265 213 249 312 228 284 312 330 356 351 356 357 344
239 253 208 160 208 241 188 201 189 181 181 160 139 139 143 149 144 148 145 136 139 146 150 150 147 148 153 156 152 149 147 141 132 137 145 148 145 145 142 139 146 144 154 150 153 163 160 164 171 173 166 158 157 156 152 159 164 166 164 167 178 179 177 184 175 178 192 190 191 198 198 201 200 192 173 234 280 286 1 128 177 320 270 293 341 328 320
102 311 250 186 20 291 312 169 156 157 162 164 159 170 166 162 156 150 143 142 142 147 156 157 150 150 152 155 148 140 144 150 152 151 145 138 133 133 140 144 147 154 158 158 156 161 160 165 170 171 164 159 154 155 156 159 164 163 162 167 177 173 172 185 182 186 184 186 189 192 192 200 202 209 194 174 208 233 265 262 238 225 219 245 263 256 264
301 275 251 166 172 308 14 124 138 149 163 175 165 162 164 163 159 159 153 153 149 152 155 160 155 149 147 148 148 143 129 124 132 138 135 133 141 143 149 151 154 154 155 161 162 160 157 163 168 167 161 160 158 158 158 157 161 161 169 169 173 172 176 172 168 191 183 182 179 188 186 193 202 206 210 229 166 196 215 238 243 238 230 230 236 234 234
6 77 136 114 295 130 111 122 125 138 164 176 162 166 166 158 157 159 149 148 150 148 153 153 151 146 138 133 131 135 138 137 133 132 137 140 144 149 156 152 156 158 161 159 152 148 155 160 160 163 161 163 158 155 158 157 162 170 177 174 172 173 169 165 171 176 182 174 185 188 186 186 198 209 217 199 241 134 181 201 219 228 227 227 223 227 225
131 114 103 104 104 100 123 111 91 120 138 147 129 133 146 156 150 152 152 146 147 150 145 146 141 140 128 122 125 131 137 142 140 135 131 138 143 148 156 159 157 155 153 151 148 151 153 157 158 163 165 160 164 161 160 165 173 183 181 179 174 171 174 175 176 179 183 183 184 195 192 195 195 201 211 236 255 273 296 292 178 191 202 209 217 228 224
127 137 126 107 92 112 215 60 152 152 141 143 144 140 141 139 140 142 138 144 143 145 142 140 131 118 109 129 136 141 140 139 139 142 145 148 153 157 159 162 155 150 151 149 148 156 155 153 156 167 169 166 167 162 168 172 180 190 183 174 173 169 168 174 186 185 187 185 190 192 191 202 200 210 218 221 246 260 277 292 318 328 353 197 189 195 256
151 147 323 141 197 188 179 149 114 124 136 135 135 134 135 133 132 133 135 134 136 131 123 122 121 121 122 132 130 125 128 140 149 150 152 160 155 153 159 159 152 146 139 143 152 152 154 161 165 172 176 169 164 166 173 173 180 183 176 172 172 167 176 192 195 188 189 193 194 197 197 204 208 215 217 219 229 243 255 265 272 287 287 305 328 221 225
165 345 250 297 91 100 98 114 115 116 115 126 130 132 139 141 142 139 140 140 136 129 128 130 132 135 135 137 142 145 154 156 156 161 160 158 160 155 156 159 155 155 151 151 152 159 162 164 167 174 177 163 165 170 174 171 176 177 171 175 178 177 178 186 192 192 194 196 200 205 201 195 196 211 211 222 235 246 256 262 271 268 275 296 292 257 187
54 121 92 97 112 124 127 125 128 127 130 141 143 148 149 145 143 141 138 137 136 135 137 134 124 130 143 149 153 149 158 164 159 148 153 151 127 142 157 153 147 145 149 156 161 164 167 168 170 178 172 160 169 171 172 173 181 183 178 177 181 182 185 182 185 191 195 206 204 176 196 205 209 215 220 225 229 242 258 266 267 274 285 283 248 283 308
91 88 101 114 121 124 125 130 130 136 140 148 147 147 149 145 140 138 140 139 134 129 138 141 143 144 155 155 156 157 157 152 150 153 145 141 153 153 151 159 157 162 167 165 161 165 170 170 173 179 158 158 166 170 170 177 181 181 178 178 185 182 177 171 189 197 201 205 195 203 208 209 212 212 220 229 226 239 248 259 257 264 270 278 281 295 299
102 95 99 101 113 120 114 122 130 139 145 147 148 150 153 147 146 143 139 140 141 142 140 143 147 153 152 143 141 146 151 149 145 142 137 143 148 154 162 171 164 157 155 152 157 165 165 168 179 177 152 159 165 171 175 178 176 179 186 182 182 177 182 182 186 193 206 207 209 211 215 214 215 212 217 224 237 242 250 257 270 275 280 281 286 294 299
118 114 110 125 123 129 132 147 146 145 150 156 151 141 142 137 132 133 134 127 126 137 143 144 145 143 144 146 146 149 149 149 147 139 142 146 151 161 171 173 163 160 158 158 162 166 166 172 178 156 157 164 168 173 180 175 178 186 184 181 186 186 170 188 199 177 195 207 214 222 211 211 214 211 222 226 236 237 245 254 267 273 273 278 285 289 277
163 179 172 169 160 161 161 166 160 150 146 137 140 141 138 138 138 133 133 138 135 142 150 148 144 142 144 147 149 146 142 135 139 153 156 156 162 165 170 171 163 159 154 152 155 166 171 175 163 158 164 165 169 170 178 180 184 187 179 182 185 182 185 188 174 205 205 210 219 208 214 203 210 217 220 222 225 231 235 246 254 265 277 280 283 284 232
12 15 153 166 150 144 147 151 159 155 148 145 147 149 145 143 143 145 145 146 151 147 133 122 135 144 145 147 149 152 157 165 166 162 164 163 164 167 162 155 151 146 147 163 170 175 176 171 163 161 161 167 169 172 177 185 185 185 178 185 187 192 194 186 190 199 211 215 206 197 196 203 213 216 223 226 226 223 230 237 249 254 263 275 287 280 267
132 125 133 135 140 151 148 151 158 159 154 151 154 150 154 152 145 142 154 149 126 125 130 132 143 144 148 152 156 165 171 166 159 158 161 165 164 158 157 158 159 162 164 174 188 177 173 175 174 166 163 168 171 178 185 185 187 189 179 185 190 196 193 192 202 206 215 217 208 208 210 209 216 213 209 215 222 228 234 236 238 241 249 262 274 281 288
187 160 148 142 143 153 156 153 154 157 155 150 149 149 149 154 156 145 127 128 138 140 138 139 142 150 160 169 170 167 162 160 160 163 162 156 153 160 165 163 165 168 168 180 190 179 177 174 172 176 180 172 181 185 184 183 187 185 180 191 196 196 194 198 200 212 212 211 219 211 203 194 210 210 205 217 225 227 227 237 239 243 249 253 257 263 267
163 158 157 151 151 154 160 162 154 148 142 142 150 155 156 153 147 146 149 144 145 148 150 155 161 161 145 141 149 158 162 160 156 150 145 154 163 163 167 169 176 172 182 193 164 165 185 162 158 176 188 186 187 192 176 184 193 182 184 193 199 202 199 204 202 209 219 217 209 212 205 215 220 224 213 211 222 226 225 229 235 244 248 249 248 248 259
122 108 96 109 131 138 134 138 155 153 154 154 156 157 157 150 152 146 144 150 150 150 156 155 135 131 144 152 158 158 158 157 155 152 153 160 170 166 175 184 183 183 184 154 144 173 164 164 173 182 185 193 192 199 173 178 190 197 189 189 192 201 199 204 208 213 217 221 212 215 218 217 223 227 231 225 223 220 222 230 237 234 243 252 252 253 253
145 151 147 147 150 150 150 157 166 170 167 154 152 156 159 153 156 155 149 146 152 156 151 145 149 154 161 163 161 164 163 159 159 158 160 160 169 175 175 192 190 181 165 156 171 175 164 168 176 188 190 191 192 190 185 177 186 201 188 193 196 199 202 204 210 217 218 214 220 218 226 220 220 225 228 229 224 223 230 223 223 232 239 243 246 249 250
155 146 148 154 153 160 161 158 167 171 164 164 159 151 159 161 157 152 157 155 156 163 158 158 158 159 165 168 169 162 155 158 164 168 161 151 163 174 181 196 193 190 184 186 190 170 160 173 187 186 197 191 195 195 189 172 187 197 195 196 200 202 203 203 211 216 218 215 218 218 218 220 218 222 225 226 230 229 228 231 233 235 239 244 248 248 247
155 151 149 153 158 167 168 167 151 152 164 168 160 157 162 159 160 165 161 152 155 164 167 172 168 166 171 170 162 148 153 163 167 163 165 169 173 177 187 198 177 186 185 189 194 181 171 184 192 199 195 192 195 193 188 169 192 193 197 196 202 203 209 202 207 215 213 215 218 224 223 222 225 226 220 225 228 231 232 231 235 235 239 238 244 247 248
156 160 164 165 166 165 163 163 173 169 161 163 167 170 167 170 166 149 147 156 161 165 172 176 178 175 167 157 154 160 162 162 166 169 182 198 187 182 186 191 180 187 175 188 188 189 189 189 190 200 203 199 200 187 187 191 196 194 198 198 200 203 209 211 212 213 210 209 212 221 222 222 221 226 225 227 229 231 231 230 234 236 237 238 240 238 241
175 171 166 163 167 168 169 171 169 156 160 170 175 178 172 166 159 156 158 164 168 171 173 173 169 173 171 167 164 166 163 166 172 174 176 189 210 250 246 209 189 173 171 182 188 197 196 195 198 199 197 201 206 184 182 201 198 199 200 201 203 205 210 211 215 215 215 212 214 218 218 214 218 225 226 229 230 232 230 233 235 237 241 241 241 242 242
173 177 177 176 163 159 171 173 170 179 179 156 155 170 178 173 171 169 164 166 172 178 178 173 173 173 172 175 179 178 173 177 175 170 175 182 192 210 204 205 189 166 180 189 191 196 202 201 205 201 199 201 200 185 196 203 202 201 202 204 207 207 210 211 214 214 214 216 217 219 217 216 218 221 223 227 229 233 233 230 232 234 236 240 241 240 239
178 179 170 158 165 178 181 180 182 158 135 147 161 173 182 182 175 175 176 173 173 178 183 182 178 178 177 181 189 187 176 177 181 182 185 182 188 204 184 184 191 195 179 184 196 199 208 206 203 200 202 202 188 184 206 207 206 206 207 209 211 211 213 216 214 218 215 216 219 221 219 221 220 221 224 226 223 225 232 236 240 239 238 238 240 240 242
169 164 170 179 186 184 178 167 146 149 151 155 165 177 186 186 181 181 186 186 181 181 183 184 186 187 185 182 178 173 175 183 205 222 235 222 199 202 179 186 194 189 178 188 197 202 205 199 201 203 203 199 184 193 201 204 204 208 207 212 212 214 215 218 217 220 218 220 219 220 225 224 225 226 222 227 232 232 232 230 231 236 235 232 234 236 238
169 172 178 180 181 171 157 151 157 167 171 181 183 177 173 180 184 191 187 190 189 187 187 189 194 193 192 193 189 183 177 171 182 208 208 215 221 210 183 185 187 182 188 204 210 218 212 205 202 202 205 195 188 204 200 201 201 206 209 211 212 215 216 218 219 222 223 221 217 221 218 219 222 227 228 225 225 223 226 227 230 232 236 234 235 235 232
177 176 175 173 163 156 164 171 177 176 187 187 181 176 169 174 178 181 182 188 189 191 194 200 199 200 197 201 201 204 204 190 183 192 185 196 206 210 211 200 187 180 186 198 204 214 208 210 209 208 204 193 203 208 209 207 205 205 208 211 212 213 214 217 221 222 223 220 217 213 215 217 220 217 221 221 223 225 222 223 228 229 232 232 233 231 233
169 156 158 168 168 172 174 175 185 191 187 178 189 177 167 167 175 190 187 187 192 194 196 197 200 200 198 196 201 212 208 209 219 222 178 184 197 206 207 200 190 184 194 201 203 212 209 207 213 212 200 198 209 210 211 210 211 210 215 217 217 219 219 222 230 230 231 229 223 218 218 220 222 225 223 226 225 223 223 222 223 228 231 235 241 241 236
168 175 183 180 180 181 181 184 187 183 182 184 186 167 165 180 188 180 183 187 185 190 204 203 205 202 199 197 201 204 205 208 219 224 208 191 203 211 212 210 197 189 198 208 213 216 211 198 205 204 206 212 212 208 207 208 212 214 214 217 214 216 219 215 216 221 219 222 223 221 219 220 221 226 223 224 221 224 225 221 220 223 221 221 224 228 231
182 183 174 172 181 181 189 197 193 184 184 180 177 168 180 187 186 188 191 188 188 191 196 196 207 208 199 203 203 205 200 205 210 212 217 216 201 209 203 204 209 197 197 209 218 219 217 212 206 199 199 205 213 217 219 219 219 221 217 218 220 220 214 211 206 210 218 218 219 224 226 225 225 226 224 224 224 224 223 223 221 221 218 220 220 220 224